Location: Follega
(52.8850°N, 5.7362°E)
Time: 03:03:58
(UTC+00:00)

Cosmos 2297 Rocket - Pass Details

Date: 01 October 2020
Orbit: 838 x 845 km, 71.0° (Epoch: 26 October)

Event Time Altitude Azimuth Distance (km) Brightness Sun altitude
Rises 21:04:20 0° 327° (NNW) 3,416 6.4 -32.7°
Reaches altitude 10° 21:07:10 10° 340° (NNW) 2,479 5.4 -33.0°
Enters shadow 21:11:05 26° 22° (NNE) 1,600 3.8 -33.4°
